Fairmont, MN

9:14 PM CDT on March 28, 2017 (GMT -0500)
Fairmont Municipal

Weather History for KFRM - January, 2012

Change the Weather History Date:

Monday, January 9, 2012

  Actual Average Record
Temperature  
Mean Temperature 38 °F -  
Max Temperature 48 °F 18 °F 51 °F (2002)
Min Temperature 28 °F 1 °F -27 °F (1982)
Degree Days  
Heating Degree Days 27    
Moisture  
Dew Point 27 °F    
Average Humidity 68    
Maximum Humidity 86    
Minimum Humidity 50    
Precipitation  
Precipitation 0.00 in - - ()
Sea Level Pressure  
Sea Level Pressure 30.01 in    
Wind  
Wind Speed 15 mph (WSW)    
Max Wind Speed 21 mph    
Max Gust Speed 26 mph    
Visibility 10 miles    
Events      
Averages and records for this station are not official NWS values.
T = Trace of Precipitation, MM = Missing Value Source: NWS Daily Summary

Daily Weather History Graph

Daily Weather History Graph

Search for Another Location

Airport or City:

Trip Planner

Search our weather history database for the weather conditions in past years. The results will help you decide how hot, cold, wet, or windy it might be!

Date:

Astronomy

Jan. 09, 2012 Rise Set
Actual Time 7:50 AM CST 4:59 PM CST
Civil Twilight 7:18 AM CST 5:31 PM CST
Nautical Twilight 6:42 AM CST 6:07 PM CST
Astronomical Twilight 6:07 AM CST 6:41 PM CST
Moon 5:48 PM CST (1/9) 7:49 AM CST (1/9)
Length of Visible Light 10h 13m
Length of Day
9h 08m
Full, 100% of the Moon is Illuminated
Jan 9
Full
Jan 16
Last Quarter
Jan 23
New
Jan 30
First Quarter
Feb 7
Full

Hourly Weather History & Observations

Time (CST) Temp. Windchill Dew Point Humidity Pressure Visibility Wind Dir Wind Speed Gust Speed Precip Events Conditions
12:15 AM 33.8 °F 23.5 °F 26.6 °F 75% 30.13 in 10.0 mi SW 16.1 mph 21.9 mph N/A   Clear
12:35 AM 33.8 °F 23.9 °F 26.6 °F 75% 30.12 in 10.0 mi SW 15.0 mph 20.7 mph N/A   Clear
1:15 AM 33.8 °F 23.9 °F 26.6 °F 75% 30.11 in 10.0 mi SW 15.0 mph - N/A   Clear
1:35 AM 33.8 °F 23.9 °F 26.6 °F 75% 30.10 in 10.0 mi SW 15.0 mph - N/A   Clear
1:55 AM 33.8 °F 23.9 °F 26.6 °F 75% 30.10 in 10.0 mi SW 15.0 mph - N/A   Clear
2:15 AM 33.8 °F 23.5 °F 26.6 °F 75% 30.10 in 10.0 mi SW 16.1 mph 20.7 mph N/A   Clear
2:35 AM 32.0 °F 21.6 °F 26.6 °F 80% 30.09 in 10.0 mi SW 15.0 mph - N/A   Clear
2:55 AM 32.0 °F 21.6 °F 26.6 °F 80% 30.09 in 10.0 mi SW 15.0 mph 20.7 mph N/A   Clear
3:15 AM 32.0 °F 22.5 °F 24.8 °F 75% 30.09 in 10.0 mi SW 12.7 mph - N/A   Clear
3:35 AM 30.2 °F 19.3 °F 24.8 °F 80% 30.08 in 10.0 mi SW 15.0 mph - N/A   Clear
3:55 AM 30.2 °F 19.8 °F 24.8 °F 80% 30.06 in 10.0 mi SW 13.8 mph - N/A   Clear
4:15 AM 30.2 °F 19.3 °F 24.8 °F 80% 30.05 in 10.0 mi SW 15.0 mph - N/A   Clear
4:35 AM 30.2 °F 19.3 °F 26.6 °F 86% 30.04 in 10.0 mi SW 15.0 mph - N/A   Clear
4:55 AM 30.2 °F 18.1 °F 24.8 °F 80% 30.02 in 10.0 mi SW 18.4 mph 21.9 mph N/A   Clear
5:15 AM 30.2 °F 18.5 °F 26.6 °F 86% 30.02 in 10.0 mi SW 17.3 mph 21.9 mph N/A   Clear
5:35 AM 30.2 °F 18.1 °F 24.8 °F 80% 30.02 in 10.0 mi SW 18.4 mph - N/A   Clear
5:55 AM 30.2 °F 19.3 °F 24.8 °F 80% 30.03 in 10.0 mi SW 15.0 mph - N/A   Clear
6:15 AM 30.2 °F 18.9 °F 24.8 °F 80% 30.03 in 10.0 mi SW 16.1 mph - N/A   Clear
6:35 AM 30.2 °F 20.2 °F 24.8 °F 80% 30.02 in 10.0 mi SW 12.7 mph - N/A   Clear
6:55 AM 30.2 °F 19.8 °F 24.8 °F 80% 30.02 in 10.0 mi SW 13.8 mph - N/A   Clear
7:15 AM 28.4 °F 17.5 °F 24.8 °F 86% 30.01 in 10.0 mi SW 13.8 mph - N/A   Clear
7:35 AM 30.2 °F 19.8 °F 23.0 °F 75% 30.01 in 10.0 mi WSW 13.8 mph - N/A   Clear
7:55 AM 30.2 °F 18.9 °F 24.8 °F 80% 29.99 in 10.0 mi WSW 16.1 mph - N/A   Clear
8:15 AM 30.2 °F 18.1 °F 23.0 °F 75% 29.99 in 10.0 mi WSW 18.4 mph - N/A   Clear
8:35 AM 32.0 °F 20.5 °F 23.0 °F 69% 29.99 in 10.0 mi WSW 18.4 mph 26.5 mph N/A   Clear
8:55 AM 33.8 °F 22.2 °F 23.0 °F 65% 29.98 in 10.0 mi WSW 20.7 mph - N/A   Clear
9:15 AM 33.8 °F 22.5 °F 23.0 °F 65% 29.98 in 10.0 mi WSW 19.6 mph 25.3 mph N/A   Clear
9:35 AM 33.8 °F 22.5 °F 24.8 °F 70% 29.99 in 10.0 mi WSW 19.6 mph - N/A   Clear
10:15 AM 35.6 °F 24.8 °F 24.8 °F 65% 30.00 in 10.0 mi WSW 19.6 mph - N/A   Clear
10:35 AM 37.4 °F 28.2 °F 26.6 °F 65% 30.00 in 10.0 mi WSW 16.1 mph - N/A   Clear
10:55 AM 37.4 °F 27.8 °F 26.6 °F 65% 30.00 in 10.0 mi West 17.3 mph - N/A   Clear
11:15 AM 39.2 °F 31.2 °F 26.6 °F 61% 30.01 in 10.0 mi West 13.8 mph - N/A   Clear
11:35 AM 42.8 °F 37.0 °F 28.4 °F 57% 30.00 in 10.0 mi West 10.4 mph - N/A   Clear
11:55 AM 42.8 °F 35.8 °F 28.4 °F 57% 29.99 in 10.0 mi West 13.8 mph - N/A   Clear
12:15 PM 44.6 °F 37.8 °F 28.4 °F 53% 29.98 in 10.0 mi West 15.0 mph - N/A   Clear
12:35 PM 44.6 °F 37.8 °F 28.4 °F 53% 29.97 in 10.0 mi West 15.0 mph - N/A   Clear
12:55 PM 46.4 °F 40.1 °F 28.4 °F 50% 29.97 in 10.0 mi West 15.0 mph - N/A   Clear
1:15 PM 46.4 °F 40.7 °F 32.0 °F 57% 29.96 in 10.0 mi West 12.7 mph - N/A   Clear
1:35 PM 48.2 °F - 30.2 °F 50% 29.96 in 10.0 mi West 16.1 mph - N/A   Clear
2:15 PM 48.2 °F - 32.0 °F 54% 29.96 in 10.0 mi West 15.0 mph - N/A   Clear
2:35 PM 48.2 °F - 30.2 °F 50% 29.96 in 10.0 mi West 12.7 mph - N/A   Clear
2:55 PM 48.2 °F - 30.2 °F 50% 29.96 in 10.0 mi West 13.8 mph - N/A   Clear
3:15 PM 48.2 °F - 32.0 °F 54% 29.97 in 10.0 mi West 11.5 mph - N/A   Clear
3:35 PM 48.2 °F - 32.0 °F 54% 29.97 in 10.0 mi West 15.0 mph - N/A   Clear
3:55 PM 48.2 °F - 33.8 °F 58% 29.97 in 10.0 mi West 8.1 mph - N/A   Clear
4:15 PM 46.4 °F 41.5 °F 32.0 °F 57% 29.97 in 10.0 mi West 10.4 mph - N/A   Clear
4:35 PM 44.6 °F 39.7 °F 32.0 °F 61% 29.98 in 10.0 mi WSW 9.2 mph - N/A   Clear
4:55 PM 44.6 °F 38.8 °F 32.0 °F 61% 29.98 in 10.0 mi WSW 11.5 mph - N/A   Clear
5:15 PM 42.8 °F 36.6 °F 30.2 °F 61% 29.99 in 10.0 mi WSW 11.5 mph - N/A   Clear
5:35 PM 41.0 °F 34.7 °F 30.2 °F 65% 29.99 in 10.0 mi WSW 10.4 mph - N/A   Clear
5:55 PM 39.2 °F 32.0 °F 30.2 °F 70% 29.99 in 10.0 mi West 11.5 mph - N/A   Clear
6:15 PM 39.2 °F 30.8 °F 30.2 °F 70% 29.99 in 10.0 mi West 15.0 mph - N/A   Clear
6:35 PM 39.2 °F 30.8 °F 28.4 °F 65% 29.99 in 10.0 mi West 15.0 mph - N/A   Clear
6:55 PM 39.2 °F 31.2 °F 28.4 °F 65% 30.00 in 10.0 mi West 13.8 mph - N/A   Clear
7:15 PM 39.2 °F 31.2 °F 28.4 °F 65% 30.01 in 10.0 mi West 13.8 mph - N/A   Clear
7:35 PM 39.2 °F 30.8 °F 28.4 °F 65% 30.02 in 10.0 mi West 15.0 mph - N/A   Clear
7:55 PM 39.2 °F 31.6 °F 28.4 °F 65% 30.02 in 10.0 mi West 12.7 mph - N/A   Clear
8:15 PM 39.2 °F 31.6 °F 28.4 °F 65% 30.02 in 10.0 mi West 12.7 mph - N/A   Clear
8:35 PM 37.4 °F 30.3 °F 28.4 °F 70% 30.03 in 10.0 mi West 10.4 mph - N/A   Clear
8:55 PM 37.4 °F 30.3 °F 28.4 °F 70% 30.03 in 10.0 mi WSW 10.4 mph - N/A   Clear
9:15 PM 35.6 °F 28.6 °F 28.4 °F 75% 30.02 in 10.0 mi WSW 9.2 mph - N/A   Clear
9:35 PM 35.6 °F 28.6 °F 28.4 °F 75% 30.02 in 10.0 mi WSW 9.2 mph - N/A   Clear
9:55 PM 35.6 °F 29.2 °F 28.4 °F 75% 30.02 in 10.0 mi WSW 8.1 mph - N/A   Clear
10:15 PM 37.4 °F 29.8 °F 28.4 °F 70% 30.01 in 10.0 mi WSW 11.5 mph - N/A   Clear
10:35 PM 37.4 °F 30.3 °F 28.4 °F 70% 30.01 in 10.0 mi WSW 10.4 mph - N/A   Clear
10:55 PM 37.4 °F 32.1 °F 28.4 °F 70% 30.01 in 10.0 mi SW 6.9 mph - N/A   Clear
11:15 PM 35.6 °F 30.7 °F 26.6 °F 70% 30.00 in 10.0 mi SW 5.8 mph - N/A   Clear
11:35 PM 33.8 °F 29.6 °F 26.6 °F 75% 30.00 in 10.0 mi West 4.6 mph - N/A   Clear
11:55 PM 35.6 °F 31.7 °F 26.6 °F 70% 30.00 in 10.0 mi WNW 4.6 mph - N/A   Clear